SL-14 DEB

Satellite information

Favourite Embed

Satellite Type and Status

DEBRISIN ORBIT

Key statistics

Satellite SL-14 DEB at a glance.

Uptime

13950

Days in orbit

Revolutions

≈ 14.2

Per day

Orbit

LEO

Low Earth Orbit

Inclination

82.5

Latest

Satellite identification and parameters

Extended collection of information and parameters for SL-14 DEB.

Object identification

Identified? True

Debris? True

Object name: SL-14 DEB

International designator: 1987-068DA

Object number (NORAD): 39974

Object ID (CCSDS): 39974

Country: COMMONWEALTH OF INDEPENDENT STATES (CIS)

Current information (Y/N): Y

RCS size: SMALL

Orbital parameters

Period: 101.667 minutes

Inclination: 82.5367 deg

SMA: 7215.709 km

Apoapsis: 851.427 km

Periapsis: 823.722 km

RAAN: 264.3871 deg

Eccentricy: 0.00191976

Argument of periapsis: 28.01 deg

Mean anomaly: 149.9794 deg

Mean motion: 14.16394497 rev/day

Mean motion (dot): 0.00004549 rev/day2

B* drag term: 0.0022783272 1/REarth

Two-line elements (TLE)

Creation date: Oct. 27, 2025, 2:46 a.m.

Reference frame: TEME

Reference center: EARTH

Epoch: Oct. 26, 2025, 3:34 p.m. UTC

TLE line 0: 0 SL-14 DEB

TLE line 1: 1 39974U 87068DA 25299.64921353 .00004549 00000-0 22783-2 0 9997

TLE line 2: 2 39974 82.5367 264.3871 0019198 28.0100 149.9794 14.16394497584801

Live tracking on map

Real-time ground track for satellite SL-14 DEB.

In-orbit conjunctions

A list of the most updated potential collisions computed for object SL-14 DEB.

Target Orbit TCA Probability of collision Miss distance Type
FENGYUN 1C DEB SSO 2024-12-12 00:34:16 0.0001704249 47.0 (m) DEBRIS
CZ-6A DEB LEO 2024-11-25 11:10:57 0.0001953643 164.0 (m) DEBRIS

Associated space launch

Second generation soviet meteorological satellite

SL-14 DEB was lifted into orbit during the mission ‘Tsiklon-3 | Meteor-2 16’, on board a Tsiklon-3 space rocket.

The launch took place on Aug. 18, 1987, 2:27 a.m. from 32/1.

For more information about the launch, click the button.

Launch to space Tsiklon-3 | Meteor-2 16
Tsiklon-3 | Meteor-2 16

Agency: N/A

Status: Launch Successful

Launch date: Aug. 18, 1987, 2:27 a.m. UTC

Rocket: Tsiklon-3

Launch pad: 32/1

Location: Plesetsk Cosmodrome, Russian Federation

...

Latest news about this satellite

There are no fresh news available about this satellite. Check back as we update our databases every day.


Newsletter sign-up

Weekly statistics, charts and insights to help you stay on top of the space industry.